#datetime,building,power
2022-03-17T00:00:00,rvs,15.89
2022-03-17T00:01:00,rvs,13.89
2022-03-17T00:02:00,rvs,14.19
2022-03-17T00:03:00,rvs,13.41
2022-03-17T00:04:00,rvs,18.87
2022-03-17T00:05:00,rvs,27.10
2022-03-17T00:06:00,rvs,27.15
2022-03-17T00:07:00,rvs,26.95
2022-03-17T00:08:00,rvs,22.91
2022-03-17T00:09:00,rvs,22.01
2022-03-17T00:10:00,rvs,21.78
2022-03-17T00:11:00,rvs,17.40
2022-03-17T00:12:00,rvs,21.63
2022-03-17T00:13:00,rvs,21.50
2022-03-17T00:14:00,rvs,21.71
2022-03-17T00:15:00,rvs,29.17
2022-03-17T00:16:00,rvs,31.64
2022-03-17T00:17:00,rvs,28.96
2022-03-17T00:18:00,rvs,34.23
2022-03-17T00:19:00,rvs,32.97
2022-03-17T00:20:00,rvs,26.48
2022-03-17T00:21:00,rvs,32.34
2022-03-17T00:22:00,rvs,27.22
2022-03-17T00:23:00,rvs,29.91
2022-03-17T00:24:00,rvs,34.15
2022-03-17T00:25:00,rvs,34.64
2022-03-17T00:26:00,rvs,29.62
2022-03-17T00:27:00,rvs,31.78
2022-03-17T00:28:00,rvs,32.04
2022-03-17T00:29:00,rvs,27.33
2022-03-17T00:30:00,rvs,30.25
2022-03-17T00:31:00,rvs,25.22
2022-03-17T00:32:00,rvs,21.44
2022-03-17T00:33:00,rvs,21.16
2022-03-17T00:34:00,rvs,25.37
2022-03-17T00:35:00,rvs,21.25
2022-03-17T00:36:00,rvs,25.29
2022-03-17T00:37:00,rvs,26.26
2022-03-17T00:38:00,rvs,26.98
2022-03-17T00:39:00,rvs,23.43
2022-03-17T00:40:00,rvs,26.22
2022-03-17T00:41:00,rvs,28.90
2022-03-17T00:42:00,rvs,20.71
2022-03-17T00:43:00,rvs,25.01
2022-03-17T00:44:00,rvs,29.54
2022-03-17T00:45:00,rvs,21.38
2022-03-17T00:46:00,rvs,34.67
2022-03-17T00:47:00,rvs,29.65
2022-03-17T00:48:00,rvs,25.88
2022-03-17T00:49:00,rvs,25.82
2022-03-17T00:50:00,rvs,37.59
2022-03-17T00:51:00,rvs,29.45
2022-03-17T00:52:00,rvs,13.60
2022-03-17T00:53:00,rvs,20.94
2022-03-17T00:54:00,rvs,16.89
2022-03-17T00:55:00,rvs,16.87
2022-03-17T00:56:00,rvs,22.40
2022-03-17T00:57:00,rvs,16.37
2022-03-17T00:58:00,rvs,12.27
2022-03-17T00:59:00,rvs,16.21
2022-03-17T01:00:00,rvs,16.07
2022-03-17T01:01:00,rvs,16.73
2022-03-17T01:02:00,rvs,17.13
2022-03-17T01:03:00,rvs,17.89
2022-03-17T01:04:00,rvs,13.50
2022-03-17T01:05:00,rvs,21.89
2022-03-17T01:06:00,rvs,20.88
2022-03-17T01:07:00,rvs,13.17
2022-03-17T01:08:00,rvs,13.26
2022-03-17T01:09:00,rvs,12.88
2022-03-17T01:10:00,rvs,12.80
2022-03-17T01:11:00,rvs,11.48
2022-03-17T01:12:00,rvs,16.11
2022-03-17T01:13:00,rvs,21.27
2022-03-17T01:14:00,rvs,42.32
2022-03-17T01:15:00,rvs,29.61
2022-03-17T01:16:00,rvs,32.71
2022-03-17T01:17:00,rvs,32.89
2022-03-17T01:18:00,rvs,37.29
2022-03-17T01:19:00,rvs,42.80
2022-03-17T01:20:00,rvs,37.22
2022-03-17T01:21:00,rvs,39.74
2022-03-17T01:22:00,rvs,38.45
2022-03-17T01:23:00,rvs,30.42
2022-03-17T01:24:00,rvs,33.61
2022-03-17T01:25:00,rvs,29.39
2022-03-17T01:26:00,rvs,23.89
2022-03-17T01:27:00,rvs,27.65
2022-03-17T01:28:00,rvs,23.95
2022-03-17T01:29:00,rvs,25.93
2022-03-17T01:30:00,rvs,30.30
2022-03-17T01:31:00,rvs,26.80
2022-03-17T01:32:00,rvs,31.39
2022-03-17T01:33:00,rvs,36.25
2022-03-17T01:34:00,rvs,31.29
2022-03-17T01:35:00,rvs,35.68
2022-03-17T01:36:00,rvs,32.88
2022-03-17T01:37:00,rvs,33.20
2022-03-17T01:38:00,rvs,31.42
2022-03-17T01:39:00,rvs,37.00
2022-03-17T01:40:00,rvs,38.23
2022-03-17T01:41:00,rvs,43.27
2022-03-17T01:42:00,rvs,43.59
2022-03-17T01:43:00,rvs,30.18
2022-03-17T01:44:00,rvs,33.99
2022-03-17T01:45:00,rvs,32.47
2022-03-17T01:46:00,rvs,37.08
2022-03-17T01:47:00,rvs,39.85
2022-03-17T01:48:00,rvs,33.04
2022-03-17T01:49:00,rvs,30.32
2022-03-17T01:50:00,rvs,35.55
2022-03-17T01:51:00,rvs,35.61
2022-03-17T01:52:00,rvs,33.03
2022-03-17T01:53:00,rvs,32.57
2022-03-17T01:54:00,rvs,29.22
2022-03-17T01:55:00,rvs,32.97
2022-03-17T01:56:00,rvs,31.93
2022-03-17T01:57:00,rvs,26.01
2022-03-17T01:58:00,rvs,21.21
2022-03-17T01:59:00,rvs,25.75
2022-03-17T02:00:00,rvs,25.34
2022-03-17T02:01:00,rvs,20.28
2022-03-17T02:02:00,rvs,16.37
2022-03-17T02:03:00,rvs,15.99
2022-03-17T02:04:00,rvs,14.66
2022-03-17T02:05:00,rvs,14.78
2022-03-17T02:06:00,rvs,18.08
2022-03-17T02:07:00,rvs,15.09
2022-03-17T02:08:00,rvs,22.90
2022-03-17T02:09:00,rvs,24.55
2022-03-17T02:10:00,rvs,24.74
2022-03-17T02:11:00,rvs,20.41
2022-03-17T02:12:00,rvs,20.34
2022-03-17T02:13:00,rvs,21.82
2022-03-17T02:14:00,rvs,22.37
2022-03-17T02:15:00,rvs,22.09
2022-03-17T02:16:00,rvs,22.37
2022-03-17T02:17:00,rvs,21.31
2022-03-17T02:18:00,rvs,19.21
2022-03-17T02:19:00,rvs,28.31
2022-03-17T02:20:00,rvs,23.05
2022-03-17T02:21:00,rvs,23.55
2022-03-17T02:22:00,rvs,18.72
2022-03-17T02:23:00,rvs,13.53
2022-03-17T02:24:00,rvs,14.09
2022-03-17T02:25:00,rvs,14.92
2022-03-17T02:26:00,rvs,17.22
2022-03-17T02:27:00,rvs,14.14
2022-03-17T02:28:00,rvs,18.45
2022-03-17T02:29:00,rvs,18.82
2022-03-17T02:30:00,rvs,18.50
2022-03-17T02:31:00,rvs,19.56
2022-03-17T02:32:00,rvs,17.29
2022-03-17T02:33:00,rvs,21.33
2022-03-17T02:34:00,rvs,20.98
2022-03-17T02:35:00,rvs,21.46
2022-03-17T02:36:00,rvs,20.51
2022-03-17T02:37:00,rvs,16.05
2022-03-17T02:38:00,rvs,10.57
2022-03-17T02:39:00,rvs,10.52
2022-03-17T02:40:00,rvs,10.38
2022-03-17T02:41:00,rvs,10.39
2022-03-17T02:42:00,rvs,10.37
2022-03-17T02:43:00,rvs,10.39
2022-03-17T02:44:00,rvs,10.44
2022-03-17T02:45:00,rvs,10.26
2022-03-17T02:46:00,rvs,10.64
2022-03-17T02:47:00,rvs,10.94
2022-03-17T02:48:00,rvs,10.75
2022-03-17T02:49:00,rvs,10.33
2022-03-17T02:50:00,rvs,10.87
2022-03-17T02:51:00,rvs,13.85
2022-03-17T02:52:00,rvs,15.01
2022-03-17T02:53:00,rvs,16.04
2022-03-17T02:54:00,rvs,18.15
2022-03-17T02:55:00,rvs,18.19
2022-03-17T02:56:00,rvs,17.36
2022-03-17T02:57:00,rvs,19.67
2022-03-17T02:58:00,rvs,20.14
2022-03-17T02:59:00,rvs,21.00
2022-03-17T03:00:00,rvs,21.76
2022-03-17T03:01:00,rvs,23.92
2022-03-17T03:02:00,rvs,22.57
2022-03-17T03:03:00,rvs,23.49
2022-03-17T03:04:00,rvs,23.82
2022-03-17T03:05:00,rvs,22.76
2022-03-17T03:06:00,rvs,21.84
2022-03-17T03:07:00,rvs,15.64
2022-03-17T03:08:00,rvs,15.29
2022-03-17T03:09:00,rvs,22.28
2022-03-17T03:10:00,rvs,22.70
2022-03-17T03:11:00,rvs,23.76
2022-03-17T03:12:00,rvs,23.89
2022-03-17T03:13:00,rvs,11.14
2022-03-17T03:14:00,rvs,13.17
2022-03-17T03:15:00,rvs,13.74
2022-03-17T03:16:00,rvs,14.86
2022-03-17T03:17:00,rvs,20.47
2022-03-17T03:18:00,rvs,20.98
2022-03-17T03:19:00,rvs,26.05
2022-03-17T03:20:00,rvs,25.97
2022-03-17T03:21:00,rvs,14.61
2022-03-17T03:22:00,rvs,14.07
2022-03-17T03:23:00,rvs,14.08
2022-03-17T03:24:00,rvs,14.28
2022-03-17T03:25:00,rvs,14.40
2022-03-17T03:26:00,rvs,14.28
2022-03-17T03:27:00,rvs,16.32
2022-03-17T03:28:00,rvs,16.08
2022-03-17T03:29:00,rvs,16.19
2022-03-17T03:30:00,rvs,15.73
2022-03-17T03:31:00,rvs,9.70
2022-03-17T03:32:00,rvs,9.69
2022-03-17T03:33:00,rvs,9.86
2022-03-17T03:34:00,rvs,9.88
2022-03-17T03:35:00,rvs,9.98
2022-03-17T03:36:00,rvs,9.99
2022-03-17T03:37:00,rvs,9.64
2022-03-17T03:38:00,rvs,9.83
2022-03-17T03:39:00,rvs,9.79
2022-03-17T03:40:00,rvs,9.53
2022-03-17T03:41:00,rvs,9.57
2022-03-17T03:42:00,rvs,13.15
2022-03-17T03:43:00,rvs,14.46
2022-03-17T03:44:00,rvs,19.66
2022-03-17T03:45:00,rvs,21.41
2022-03-17T03:46:00,rvs,22.62
2022-03-17T03:47:00,rvs,21.21
2022-03-17T03:48:00,rvs,16.13
2022-03-17T03:49:00,rvs,16.77
2022-03-17T03:50:00,rvs,29.21
2022-03-17T03:51:00,rvs,28.95
2022-03-17T03:52:00,rvs,27.20
2022-03-17T03:53:00,rvs,21.57
2022-03-17T03:54:00,rvs,21.77
2022-03-17T03:55:00,rvs,22.19
2022-03-17T03:56:00,rvs,17.35
2022-03-17T03:57:00,rvs,13.59
2022-03-17T03:58:00,rvs,15.59
2022-03-17T03:59:00,rvs,16.12
2022-03-17T04:00:00,rvs,18.49
2022-03-17T04:01:00,rvs,17.60
2022-03-17T04:02:00,rvs,16.79
2022-03-17T04:03:00,rvs,16.89
2022-03-17T04:04:00,rvs,16.65
2022-03-17T04:05:00,rvs,15.89
2022-03-17T04:06:00,rvs,15.35
2022-03-17T04:07:00,rvs,9.88
2022-03-17T04:08:00,rvs,10.09
2022-03-17T04:09:00,rvs,10.04
2022-03-17T04:10:00,rvs,9.97
2022-03-17T04:11:00,rvs,10.00
2022-03-17T04:12:00,rvs,9.98
2022-03-17T04:13:00,rvs,9.86
2022-03-17T04:14:00,rvs,9.98
2022-03-17T04:15:00,rvs,10.06
2022-03-17T04:16:00,rvs,13.84
2022-03-17T04:17:00,rvs,15.03
2022-03-17T04:18:00,rvs,16.45
2022-03-17T04:19:00,rvs,16.48
2022-03-17T04:20:00,rvs,15.38
2022-03-17T04:21:00,rvs,14.77
2022-03-17T04:22:00,rvs,14.23
2022-03-17T04:23:00,rvs,14.46
2022-03-17T04:24:00,rvs,14.30
2022-03-17T04:25:00,rvs,14.43
2022-03-17T04:26:00,rvs,9.97
2022-03-17T04:27:00,rvs,10.23
2022-03-17T04:28:00,rvs,10.25
2022-03-17T04:29:00,rvs,10.31
2022-03-17T04:30:00,rvs,10.36
2022-03-17T04:31:00,rvs,12.63
2022-03-17T04:32:00,rvs,14.20
2022-03-17T04:33:00,rvs,15.14
2022-03-17T04:34:00,rvs,17.03
2022-03-17T04:35:00,rvs,21.57
2022-03-17T04:36:00,rvs,22.56
2022-03-17T04:37:00,rvs,23.14
2022-03-17T04:38:00,rvs,23.32
2022-03-17T04:39:00,rvs,22.52
2022-03-17T04:40:00,rvs,21.51
2022-03-17T04:41:00,rvs,20.96
2022-03-17T04:42:00,rvs,22.41
2022-03-17T04:43:00,rvs,21.25
2022-03-17T04:44:00,rvs,27.83
2022-03-17T04:45:00,rvs,27.73
2022-03-17T04:46:00,rvs,28.11
2022-03-17T04:47:00,rvs,28.65
2022-03-17T04:48:00,rvs,32.11
2022-03-17T04:49:00,rvs,32.95
2022-03-17T04:50:00,rvs,33.74
2022-03-17T04:51:00,rvs,35.50
2022-03-17T04:52:00,rvs,32.93
2022-03-17T04:53:00,rvs,37.72
2022-03-17T04:54:00,rvs,37.05
2022-03-17T04:55:00,rvs,32.25
2022-03-17T04:56:00,rvs,23.18
2022-03-17T04:57:00,rvs,25.16
2022-03-17T04:58:00,rvs,25.36
2022-03-17T04:59:00,rvs,28.01
2022-03-17T05:00:00,rvs,27.55
2022-03-17T05:01:00,rvs,33.26
2022-03-17T05:02:00,rvs,33.02
2022-03-17T05:03:00,rvs,20.28
2022-03-17T05:04:00,rvs,20.06
2022-03-17T05:05:00,rvs,14.57
2022-03-17T05:06:00,rvs,13.98
2022-03-17T05:07:00,rvs,14.13
2022-03-17T05:08:00,rvs,14.26
2022-03-17T05:09:00,rvs,14.13
2022-03-17T05:10:00,rvs,14.29
2022-03-17T05:11:00,rvs,15.25
2022-03-17T05:12:00,rvs,14.38
2022-03-17T05:13:00,rvs,15.26
2022-03-17T05:14:00,rvs,18.61
2022-03-17T05:15:00,rvs,19.49
2022-03-17T05:16:00,rvs,20.73
2022-03-17T05:17:00,rvs,21.31
2022-03-17T05:18:00,rvs,20.54
2022-03-17T05:19:00,rvs,19.31
2022-03-17T05:20:00,rvs,16.15
2022-03-17T05:21:00,rvs,18.81
2022-03-17T05:22:00,rvs,19.82
2022-03-17T05:23:00,rvs,20.90
2022-03-17T05:24:00,rvs,22.70
2022-03-17T05:25:00,rvs,22.81
2022-03-17T05:26:00,rvs,22.33
2022-03-17T05:27:00,rvs,21.61
2022-03-17T05:28:00,rvs,20.98
2022-03-17T05:29:00,rvs,20.32
2022-03-17T05:30:00,rvs,14.48
2022-03-17T05:31:00,rvs,13.97
2022-03-17T05:32:00,rvs,13.92
2022-03-17T05:33:00,rvs,14.11
2022-03-17T05:34:00,rvs,14.19
2022-03-17T05:35:00,rvs,14.36
2022-03-17T05:36:00,rvs,14.44
2022-03-17T05:37:00,rvs,14.00
2022-03-17T05:38:00,rvs,14.28
2022-03-17T05:39:00,rvs,15.16
2022-03-17T05:40:00,rvs,14.97
2022-03-17T05:41:00,rvs,14.49
2022-03-17T05:42:00,rvs,14.33
2022-03-17T05:43:00,rvs,14.32
2022-03-17T05:44:00,rvs,14.10
2022-03-17T05:45:00,rvs,14.94
2022-03-17T05:46:00,rvs,17.47
2022-03-17T05:47:00,rvs,18.54
2022-03-17T05:48:00,rvs,21.80
2022-03-17T05:49:00,rvs,23.19
2022-03-17T05:50:00,rvs,22.69
2022-03-17T05:51:00,rvs,20.52
2022-03-17T05:52:00,rvs,20.26
2022-03-17T05:53:00,rvs,20.68
2022-03-17T05:54:00,rvs,19.89
2022-03-17T05:55:00,rvs,21.96
2022-03-17T05:56:00,rvs,16.01
2022-03-17T05:57:00,rvs,15.71
2022-03-17T05:58:00,rvs,15.87
2022-03-17T05:59:00,rvs,9.77
2022-03-17T06:00:00,rvs,9.72
2022-03-17T06:01:00,rvs,9.50
2022-03-17T06:02:00,rvs,9.55
2022-03-17T06:03:00,rvs,11.20
2022-03-17T06:04:00,rvs,14.49
2022-03-17T06:05:00,rvs,18.52
2022-03-17T06:06:00,rvs,20.29
2022-03-17T06:07:00,rvs,20.68
2022-03-17T06:08:00,rvs,20.61
2022-03-17T06:09:00,rvs,19.50
2022-03-17T06:10:00,rvs,18.37
2022-03-17T06:11:00,rvs,19.38
2022-03-17T06:12:00,rvs,17.69
2022-03-17T06:13:00,rvs,18.11
2022-03-17T06:14:00,rvs,18.97
2022-03-17T06:15:00,rvs,19.91
2022-03-17T06:16:00,rvs,24.79
2022-03-17T06:17:00,rvs,25.50
2022-03-17T06:18:00,rvs,14.19
2022-03-17T06:19:00,rvs,14.27
2022-03-17T06:20:00,rvs,9.99
2022-03-17T06:21:00,rvs,10.48
2022-03-17T06:22:00,rvs,9.88
2022-03-17T06:23:00,rvs,9.93
2022-03-17T06:24:00,rvs,9.85
2022-03-17T06:25:00,rvs,9.89
2022-03-17T06:26:00,rvs,10.14
2022-03-17T06:27:00,rvs,9.91
2022-03-17T06:28:00,rvs,10.12
2022-03-17T06:29:00,rvs,10.10
2022-03-17T06:30:00,rvs,9.99
2022-03-17T06:31:00,rvs,9.83
2022-03-17T06:32:00,rvs,9.82
2022-03-17T06:33:00,rvs,9.69
2022-03-17T06:34:00,rvs,9.76
2022-03-17T06:35:00,rvs,9.75
2022-03-17T06:36:00,rvs,9.99
2022-03-17T06:37:00,rvs,10.00
2022-03-17T06:38:00,rvs,10.11
2022-03-17T06:39:00,rvs,10.27
2022-03-17T06:40:00,rvs,10.32
2022-03-17T06:41:00,rvs,10.09
2022-03-17T06:42:00,rvs,10.01
2022-03-17T06:43:00,rvs,9.76
2022-03-17T06:44:00,rvs,13.30
2022-03-17T06:45:00,rvs,14.71
2022-03-17T06:46:00,rvs,16.01
2022-03-17T06:47:00,rvs,29.11
2022-03-17T06:48:00,rvs,25.92
2022-03-17T06:49:00,rvs,34.16
2022-03-17T06:50:00,rvs,34.02
2022-03-17T06:51:00,rvs,23.21
2022-03-17T06:52:00,rvs,23.52
2022-03-17T06:53:00,rvs,13.56
2022-03-17T06:54:00,rvs,16.15
2022-03-17T06:55:00,rvs,16.28
2022-03-17T06:56:00,rvs,18.02
2022-03-17T06:57:00,rvs,17.53
2022-03-17T06:58:00,rvs,16.36
2022-03-17T06:59:00,rvs,16.52
2022-03-17T07:00:00,rvs,16.17
2022-03-17T07:01:00,rvs,14.12
2022-03-17T07:02:00,rvs,13.96
2022-03-17T07:03:00,rvs,16.79
2022-03-17T07:04:00,rvs,17.20
2022-03-17T07:05:00,rvs,16.51
2022-03-17T07:06:00,rvs,16.00
2022-03-17T07:07:00,rvs,9.76
2022-03-17T07:08:00,rvs,9.92
2022-03-17T07:09:00,rvs,12.85
2022-03-17T07:10:00,rvs,13.83
2022-03-17T07:11:00,rvs,14.96
2022-03-17T07:12:00,rvs,16.12
2022-03-17T07:13:00,rvs,18.01
2022-03-17T07:14:00,rvs,17.15
2022-03-17T07:15:00,rvs,14.55
2022-03-17T07:16:00,rvs,23.43
2022-03-17T07:17:00,rvs,23.97
2022-03-17T07:18:00,rvs,24.45
2022-03-17T07:19:00,rvs,24.57
2022-03-17T07:20:00,rvs,12.90
2022-03-17T07:21:00,rvs,13.49
2022-03-17T07:22:00,rvs,14.09
2022-03-17T07:23:00,rvs,15.91
2022-03-17T07:24:00,rvs,19.65
2022-03-17T07:25:00,rvs,22.71
2022-03-17T07:26:00,rvs,25.33
2022-03-17T07:27:00,rvs,26.39
2022-03-17T07:28:00,rvs,26.23
2022-03-17T07:29:00,rvs,26.19
2022-03-17T07:30:00,rvs,24.87
2022-03-17T07:31:00,rvs,21.73
2022-03-17T07:32:00,rvs,21.15
2022-03-17T07:33:00,rvs,21.79
2022-03-17T07:34:00,rvs,26.82
2022-03-17T07:35:00,rvs,25.73
2022-03-17T07:36:00,rvs,24.71
2022-03-17T07:37:00,rvs,23.97
2022-03-17T07:38:00,rvs,20.36
2022-03-17T07:39:00,rvs,20.35
2022-03-17T07:40:00,rvs,19.16
2022-03-17T07:41:00,rvs,14.32
2022-03-17T07:42:00,rvs,9.17
2022-03-17T07:43:00,rvs,9.18
2022-03-17T07:44:00,rvs,12.40
2022-03-17T07:45:00,rvs,13.23
2022-03-17T07:46:00,rvs,14.38
2022-03-17T07:47:00,rvs,16.83
2022-03-17T07:48:00,rvs,15.74
2022-03-17T07:49:00,rvs,15.53
2022-03-17T07:50:00,rvs,14.83
2022-03-17T07:51:00,rvs,16.40
2022-03-17T07:52:00,rvs,16.80
2022-03-17T07:53:00,rvs,15.96
2022-03-17T07:54:00,rvs,15.72
2022-03-17T07:55:00,rvs,33.73
2022-03-17T07:56:00,rvs,16.89
2022-03-17T07:57:00,rvs,15.84
2022-03-17T07:58:00,rvs,15.93
2022-03-17T07:59:00,rvs,38.32
2022-03-17T08:00:00,rvs,21.62
2022-03-17T08:01:00,rvs,22.51
2022-03-17T08:02:00,rvs,21.94
2022-03-17T08:03:00,rvs,21.35
2022-03-17T08:04:00,rvs,14.56
2022-03-17T08:05:00,rvs,15.51
2022-03-17T08:06:00,rvs,14.13
2022-03-17T08:07:00,rvs,16.24
2022-03-17T08:08:00,rvs,16.44
2022-03-17T08:09:00,rvs,16.12
2022-03-17T08:10:00,rvs,15.71
2022-03-17T08:11:00,rvs,15.31
2022-03-17T08:12:00,rvs,13.05
2022-03-17T08:13:00,rvs,10.07
2022-03-17T08:14:00,rvs,9.77
2022-03-17T08:15:00,rvs,9.86
2022-03-17T08:16:00,rvs,10.18
2022-03-17T08:17:00,rvs,9.87
2022-03-17T08:18:00,rvs,9.89
2022-03-17T08:19:00,rvs,10.33
2022-03-17T08:20:00,rvs,10.84
2022-03-17T08:21:00,rvs,10.17
2022-03-17T08:22:00,rvs,13.70
2022-03-17T08:23:00,rvs,15.67
2022-03-17T08:24:00,rvs,17.33
2022-03-17T08:25:00,rvs,17.78
2022-03-17T08:26:00,rvs,14.25
2022-03-17T08:27:00,rvs,15.12
2022-03-17T08:28:00,rvs,16.95
2022-03-17T08:29:00,rvs,16.62
2022-03-17T08:30:00,rvs,16.29
2022-03-17T08:31:00,rvs,15.95
2022-03-17T08:32:00,rvs,15.69
2022-03-17T08:33:00,rvs,15.79
2022-03-17T08:34:00,rvs,15.86
2022-03-17T08:35:00,rvs,16.13
2022-03-17T08:36:00,rvs,10.73
2022-03-17T08:37:00,rvs,10.47
2022-03-17T08:38:00,rvs,10.56
2022-03-17T08:39:00,rvs,10.36
2022-03-17T08:40:00,rvs,10.71
2022-03-17T08:41:00,rvs,10.92
2022-03-17T08:42:00,rvs,10.96
2022-03-17T08:43:00,rvs,10.32
2022-03-17T08:44:00,rvs,10.55
2022-03-17T08:45:00,rvs,10.48
2022-03-17T08:46:00,rvs,14.46
2022-03-17T08:47:00,rvs,18.07
2022-03-17T08:48:00,rvs,21.28
2022-03-17T08:49:00,rvs,21.19
2022-03-17T08:50:00,rvs,22.73
2022-03-17T08:51:00,rvs,28.69
2022-03-17T08:52:00,rvs,26.63
2022-03-17T08:53:00,rvs,25.37
2022-03-17T08:54:00,rvs,20.05
2022-03-17T08:55:00,rvs,20.47
2022-03-17T08:56:00,rvs,15.23
2022-03-17T08:57:00,rvs,15.43
2022-03-17T08:58:00,rvs,15.82
2022-03-17T08:59:00,rvs,15.39
2022-03-17T09:00:00,rvs,15.33
2022-03-17T09:01:00,rvs,15.07
2022-03-17T09:02:00,rvs,14.97
2022-03-17T09:03:00,rvs,14.84
2022-03-17T09:04:00,rvs,18.22
2022-03-17T09:05:00,rvs,19.87
2022-03-17T09:06:00,rvs,21.25
2022-03-17T09:07:00,rvs,23.05
2022-03-17T09:08:00,rvs,40.01
2022-03-17T09:09:00,rvs,39.90
2022-03-17T09:10:00,rvs,39.51
2022-03-17T09:11:00,rvs,31.28
2022-03-17T09:12:00,rvs,17.32
2022-03-17T09:13:00,rvs,19.69
2022-03-17T09:14:00,rvs,21.02
2022-03-17T09:15:00,rvs,22.56
2022-03-17T09:16:00,rvs,22.16
2022-03-17T09:17:00,rvs,17.41
2022-03-17T09:18:00,rvs,16.75
2022-03-17T09:19:00,rvs,16.49
2022-03-17T09:20:00,rvs,18.20
2022-03-17T09:21:00,rvs,19.68
2022-03-17T09:22:00,rvs,15.22
2022-03-17T09:23:00,rvs,16.82
2022-03-17T09:24:00,rvs,19.77
2022-03-17T09:25:00,rvs,17.81
2022-03-17T09:26:00,rvs,17.63
2022-03-17T09:27:00,rvs,16.85
2022-03-17T09:28:00,rvs,18.56
2022-03-17T09:29:00,rvs,18.03
2022-03-17T09:30:00,rvs,19.84
2022-03-17T09:31:00,rvs,21.54
2022-03-17T09:32:00,rvs,41.10
2022-03-17T09:33:00,rvs,22.73
2022-03-17T09:34:00,rvs,22.02
2022-03-17T09:35:00,rvs,15.37
2022-03-17T09:36:00,rvs,15.33
2022-03-17T09:37:00,rvs,15.08
2022-03-17T09:38:00,rvs,15.38
2022-03-17T09:39:00,rvs,14.30
2022-03-17T09:40:00,rvs,14.30
2022-03-17T09:41:00,rvs,15.42
2022-03-17T09:42:00,rvs,10.58
2022-03-17T09:43:00,rvs,10.41
2022-03-17T09:44:00,rvs,10.68
2022-03-17T09:45:00,rvs,10.53
2022-03-17T09:46:00,rvs,10.41
2022-03-17T09:47:00,rvs,10.88
2022-03-17T09:48:00,rvs,10.33
2022-03-17T09:49:00,rvs,10.48
2022-03-17T09:50:00,rvs,15.05
2022-03-17T09:51:00,rvs,15.11
2022-03-17T09:52:00,rvs,15.14
2022-03-17T09:53:00,rvs,15.36
2022-03-17T09:54:00,rvs,15.02
2022-03-17T09:55:00,rvs,14.53
2022-03-17T09:56:00,rvs,14.74
2022-03-17T09:57:00,rvs,14.56
2022-03-17T09:58:00,rvs,14.66
2022-03-17T09:59:00,rvs,14.61
2022-03-17T10:00:00,rvs,14.57
2022-03-17T10:01:00,rvs,14.28
2022-03-17T10:02:00,rvs,14.67
2022-03-17T10:03:00,rvs,14.85
2022-03-17T10:04:00,rvs,15.56
2022-03-17T10:05:00,rvs,15.24
2022-03-17T10:06:00,rvs,14.87
2022-03-17T10:07:00,rvs,14.88
2022-03-17T10:08:00,rvs,15.11
2022-03-17T10:09:00,rvs,15.17
2022-03-17T10:10:00,rvs,14.78
2022-03-17T10:11:00,rvs,14.70
2022-03-17T10:12:00,rvs,14.69
2022-03-17T10:13:00,rvs,19.25
2022-03-17T10:14:00,rvs,15.41
2022-03-17T10:15:00,rvs,19.63
2022-03-17T10:16:00,rvs,19.48
2022-03-17T10:17:00,rvs,15.13
2022-03-17T10:18:00,rvs,15.76
2022-03-17T10:19:00,rvs,15.60
2022-03-17T10:20:00,rvs,18.41
2022-03-17T10:21:00,rvs,19.74
2022-03-17T10:22:00,rvs,20.97
2022-03-17T10:23:00,rvs,22.37
2022-03-17T10:24:00,rvs,19.89
2022-03-17T10:25:00,rvs,22.99
2022-03-17T10:26:00,rvs,23.75
2022-03-17T10:27:00,rvs,22.36
2022-03-17T10:28:00,rvs,21.01
2022-03-17T10:29:00,rvs,21.23
2022-03-17T10:30:00,rvs,20.36
2022-03-17T10:31:00,rvs,17.57
2022-03-17T10:32:00,rvs,21.39
2022-03-17T10:33:00,rvs,21.22
2022-03-17T10:34:00,rvs,17.01
2022-03-17T10:35:00,rvs,21.03
2022-03-17T10:36:00,rvs,21.01
2022-03-17T10:37:00,rvs,17.12
2022-03-17T10:38:00,rvs,20.97
2022-03-17T10:39:00,rvs,20.67
2022-03-17T10:40:00,rvs,16.75
2022-03-17T10:41:00,rvs,18.19
2022-03-17T10:42:00,rvs,21.82
2022-03-17T10:43:00,rvs,12.31
2022-03-17T10:44:00,rvs,12.10
2022-03-17T10:45:00,rvs,15.06
2022-03-17T10:46:00,rvs,12.04
2022-03-17T10:47:00,rvs,11.57
2022-03-17T10:48:00,rvs,11.81
2022-03-17T10:49:00,rvs,11.76
2022-03-17T10:50:00,rvs,11.46
2022-03-17T10:51:00,rvs,12.40
2022-03-17T10:52:00,rvs,11.14
2022-03-17T10:53:00,rvs,11.27
2022-03-17T10:54:00,rvs,11.24
2022-03-17T10:55:00,rvs,11.09
2022-03-17T10:56:00,rvs,10.80
2022-03-17T10:57:00,rvs,11.80
2022-03-17T10:58:00,rvs,11.12
2022-03-17T10:59:00,rvs,10.82
2022-03-17T11:00:00,rvs,11.86
2022-03-17T11:01:00,rvs,11.58
2022-03-17T11:02:00,rvs,11.70
2022-03-17T11:03:00,rvs,11.55
2022-03-17T11:04:00,rvs,11.68
2022-03-17T11:05:00,rvs,12.88
2022-03-17T11:06:00,rvs,12.88
2022-03-17T11:07:00,rvs,12.79
2022-03-17T11:08:00,rvs,10.47
2022-03-17T11:09:00,rvs,11.21
2022-03-17T11:10:00,rvs,14.49
2022-03-17T11:11:00,rvs,15.43
2022-03-17T11:12:00,rvs,16.96
2022-03-17T11:13:00,rvs,19.29
2022-03-17T11:14:00,rvs,16.77
2022-03-17T11:15:00,rvs,16.32
2022-03-17T11:16:00,rvs,14.60
2022-03-17T11:17:00,rvs,15.10
2022-03-17T11:18:00,rvs,15.42
2022-03-17T11:19:00,rvs,15.18
2022-03-17T11:20:00,rvs,14.49
2022-03-17T11:21:00,rvs,31.36
2022-03-17T11:22:00,rvs,17.08
2022-03-17T11:23:00,rvs,19.31
2022-03-17T11:24:00,rvs,21.21
2022-03-17T11:25:00,rvs,21.63
2022-03-17T11:26:00,rvs,18.91
2022-03-17T11:27:00,rvs,20.13
2022-03-17T11:28:00,rvs,21.53
2022-03-17T11:29:00,rvs,21.06
2022-03-17T11:30:00,rvs,16.18
2022-03-17T11:31:00,rvs,15.79
2022-03-17T11:32:00,rvs,15.73
2022-03-17T11:33:00,rvs,11.41
2022-03-17T11:34:00,rvs,10.77
2022-03-17T11:35:00,rvs,10.79
2022-03-17T11:36:00,rvs,10.90
2022-03-17T11:37:00,rvs,11.59
2022-03-17T11:38:00,rvs,11.42
2022-03-17T11:39:00,rvs,11.25
2022-03-17T11:40:00,rvs,11.15
2022-03-17T11:41:00,rvs,11.18
2022-03-17T11:42:00,rvs,15.48
2022-03-17T11:43:00,rvs,16.43
2022-03-17T11:44:00,rvs,29.76
2022-03-17T11:45:00,rvs,28.44
2022-03-17T11:46:00,rvs,23.63
2022-03-17T11:47:00,rvs,23.24
2022-03-17T11:48:00,rvs,10.43
2022-03-17T11:49:00,rvs,10.45
2022-03-17T11:50:00,rvs,10.56
2022-03-17T11:51:00,rvs,10.92
2022-03-17T11:52:00,rvs,10.91
2022-03-17T11:53:00,rvs,11.26
2022-03-17T11:54:00,rvs,10.87
2022-03-17T11:55:00,rvs,10.88
2022-03-17T11:56:00,rvs,10.90
2022-03-17T11:57:00,rvs,11.01
2022-03-17T11:58:00,rvs,10.94
2022-03-17T11:59:00,rvs,10.45
2022-03-17T12:00:00,rvs,10.29
2022-03-17T12:01:00,rvs,10.20
2022-03-17T12:02:00,rvs,10.51
2022-03-17T12:03:00,rvs,10.43
2022-03-17T12:04:00,rvs,10.13
2022-03-17T12:05:00,rvs,10.13
2022-03-17T12:06:00,rvs,10.22
2022-03-17T12:07:00,rvs,10.44
2022-03-17T12:08:00,rvs,10.38
2022-03-17T12:09:00,rvs,10.54
2022-03-17T12:10:00,rvs,10.71
2022-03-17T12:11:00,rvs,11.82
2022-03-17T12:12:00,rvs,11.94
2022-03-17T12:13:00,rvs,10.87
2022-03-17T12:14:00,rvs,10.62
2022-03-17T12:15:00,rvs,10.72
2022-03-17T12:16:00,rvs,10.78
2022-03-17T12:17:00,rvs,10.85
2022-03-17T12:18:00,rvs,10.81
2022-03-17T12:19:00,rvs,10.82
2022-03-17T12:20:00,rvs,10.79
2022-03-17T12:21:00,rvs,10.80
2022-03-17T12:22:00,rvs,10.94
2022-03-17T12:23:00,rvs,11.46
2022-03-17T12:24:00,rvs,11.07
2022-03-17T12:25:00,rvs,11.21
2022-03-17T12:26:00,rvs,11.36
2022-03-17T12:27:00,rvs,11.02
2022-03-17T12:28:00,rvs,10.85
2022-03-17T12:29:00,rvs,10.72
2022-03-17T12:30:00,rvs,10.75
2022-03-17T12:31:00,rvs,10.81
2022-03-17T12:32:00,rvs,10.67
2022-03-17T12:33:00,rvs,10.70
2022-03-17T12:34:00,rvs,10.71
2022-03-17T12:35:00,rvs,10.52
2022-03-17T12:36:00,rvs,10.49
2022-03-17T12:37:00,rvs,10.33
2022-03-17T12:38:00,rvs,10.47
2022-03-17T12:39:00,rvs,10.45
2022-03-17T12:40:00,rvs,10.74
2022-03-17T12:41:00,rvs,10.60
2022-03-17T12:42:00,rvs,10.92
2022-03-17T12:43:00,rvs,11.03
2022-03-17T12:44:00,rvs,13.71
2022-03-17T12:45:00,rvs,14.70
2022-03-17T12:46:00,rvs,16.25
2022-03-17T12:47:00,rvs,16.80
2022-03-17T12:48:00,rvs,17.14
2022-03-17T12:49:00,rvs,15.54
2022-03-17T12:50:00,rvs,14.91
2022-03-17T12:51:00,rvs,15.08
2022-03-17T12:52:00,rvs,16.91
2022-03-17T12:53:00,rvs,15.31
2022-03-17T12:54:00,rvs,14.52
2022-03-17T12:55:00,rvs,14.84
2022-03-17T12:56:00,rvs,17.00
2022-03-17T12:57:00,rvs,17.81
2022-03-17T12:58:00,rvs,18.44
2022-03-17T12:59:00,rvs,18.70
2022-03-17T13:00:00,rvs,17.98
2022-03-17T13:01:00,rvs,10.64
2022-03-17T13:02:00,rvs,14.91
2022-03-17T13:03:00,rvs,14.68
2022-03-17T13:04:00,rvs,15.09
2022-03-17T13:05:00,rvs,15.00
2022-03-17T13:06:00,rvs,10.52
2022-03-17T13:07:00,rvs,10.64
2022-03-17T13:08:00,rvs,10.37
2022-03-17T13:09:00,rvs,10.21
2022-03-17T13:10:00,rvs,10.30
2022-03-17T13:11:00,rvs,10.33
2022-03-17T13:12:00,rvs,9.67
2022-03-17T13:13:00,rvs,9.31
2022-03-17T13:14:00,rvs,12.38
2022-03-17T13:15:00,rvs,13.55
2022-03-17T13:16:00,rvs,29.85
2022-03-17T13:17:00,rvs,15.94
2022-03-17T13:18:00,rvs,15.99
2022-03-17T13:19:00,rvs,14.77